RYR3275 EKAH-EVRA

Flight info

Callsign RYR3275
Flight time N/A
Altitude 35000
Route ROKAM L621 KULUD DCT GELDA DCT TENSI
Aircraft B738/M-SDE2E3FGHIRWXY/LB1

Departure

Time 2026-05-08 18:26
Airport Aarhus Airport (EKAH)

Arrival

Time N/A
Airport Riga International Airport (EVRA)
Time Latitude Longitude Altitude Speed Heading
2026-05-08 18:03 56.30717 10.62670 77 ft 0 kts 10°
2026-05-08 18:16 56.30712 10.62668 77 ft 2 kts 10°
2026-05-08 18:16 56.30698 10.62664 77 ft 2 kts 10°
2026-05-08 18:16 56.30683 10.62659 77 ft 2 kts 10°
2026-05-08 18:17 56.30674 10.62656 77 ft 2 kts 10°
2026-05-08 18:17 56.30659 10.62661 78 ft 2 kts 324°
2026-05-08 18:17 56.30650 10.62681 78 ft 1 kts 288°
2026-05-08 18:17 56.30649 10.62692 78 ft 1 kts 276°
2026-05-08 18:18 56.30648 10.62698 78 ft 0 kts 279°
2026-05-08 18:20 56.30651 10.62668 78 ft 5 kts 279°
2026-05-08 18:20 56.30657 10.62604 78 ft 4 kts 279°
2026-05-08 18:21 56.30664 10.62517 78 ft 10 kts 277°
2026-05-08 18:21 56.30619 10.62369 78 ft 16 kts 220°
2026-05-08 18:21 56.30533 10.62236 79 ft 15 kts 222°
2026-05-08 18:21 56.30511 10.62074 80 ft 14 kts 281°
2026-05-08 18:22 56.30534 10.61853 80 ft 21 kts 280°
2026-05-08 18:22 56.30563 10.61547 81 ft 28 kts 281°
2026-05-08 18:22 56.30603 10.61169 81 ft 31 kts 281°
2026-05-08 18:22 56.30642 10.60787 80 ft 30 kts 280°
2026-05-08 18:23 56.30679 10.60416 80 ft 29 kts 281°
2026-05-08 18:23 56.30712 10.60087 82 ft 15 kts 279°
2026-05-08 18:23 56.30724 10.59956 84 ft 9 kts 281°
2026-05-08 18:23 56.30735 10.59860 85 ft 6 kts 275°
2026-05-08 18:24 56.30714 10.59793 85 ft 5 kts 208°
2026-05-08 18:24 56.30673 10.59782 86 ft 8 kts 183°
2026-05-08 18:24 56.30611 10.59778 86 ft 8 kts 183°
2026-05-08 18:24 56.30558 10.59774 86 ft 6 kts 163°
2026-05-08 18:25 56.30540 10.59848 85 ft 6 kts 99°
2026-05-08 18:25 56.30540 10.59854 85 ft 0 kts 100°
2026-05-08 18:25 56.30532 10.59932 84 ft 29 kts 100°
2026-05-08 18:25 56.30450 10.60729 81 ft 97 kts 101°
2026-05-08 18:26 56.30296 10.62256 80 ft 151 kts 101°
2026-05-08 18:26 56.30087 10.64296 362 ft 171 kts 100°
2026-05-08 18:26 56.29881 10.66379 1020 ft 170 kts 100°
2026-05-08 18:26 56.29879 10.68465 1680 ft 172 kts 86°
2026-05-08 18:27 56.30002 10.70657 2066 ft 184 kts 89°
2026-05-08 18:27 56.30049 10.72249 2310 ft 194 kts 91°
2026-05-08 18:27 56.30096 10.75629 2842 ft 214 kts 90°
2026-05-08 18:27 56.30136 10.78364 3302 ft 227 kts 89°
2026-05-08 18:28 56.30186 10.81294 3774 ft 241 kts 90°
2026-05-08 18:28 56.30237 10.84342 4338 ft 249 kts 90°
2026-05-08 18:28 56.30289 10.87444 5004 ft 253 kts 90°
2026-05-08 18:28 56.30340 10.90632 5787 ft 255 kts 90°
2026-05-08 18:29 56.30390 10.93787 6527 ft 256 kts 90°
2026-05-08 18:29 56.30439 10.97000 7206 ft 260 kts 90°
2026-05-08 18:29 56.30487 11.00242 7836 ft 265 kts 90°
2026-05-08 18:29 56.30536 11.03579 8469 ft 269 kts 90°
2026-05-08 18:30 56.30585 11.06942 9069 ft 274 kts 90°
2026-05-08 18:30 56.30634 11.10378 9681 ft 278 kts 90°
2026-05-08 18:30 56.30683 11.13867 10268 ft 283 kts 90°
2026-05-08 18:30 56.30733 11.17465 10733 ft 293 kts 90°
2026-05-08 18:31 56.30782 11.21183 11045 ft 308 kts 90°
2026-05-08 18:31 56.30832 11.25090 11476 ft 318 kts 89°
2026-05-08 18:31 56.30884 11.29101 12065 ft 324 kts 89°
2026-05-08 18:31 56.30948 11.33146 12699 ft 328 kts 87°
2026-05-08 18:32 56.31214 11.37253 13344 ft 332 kts 81°
2026-05-08 18:32 56.31661 11.41325 13984 ft 336 kts 78°
2026-05-08 18:32 56.32164 11.45446 14651 ft 339 kts 78°
2026-05-08 18:32 56.32652 11.49574 15275 ft 343 kts 78°
2026-05-08 18:33 56.33123 11.53830 15914 ft 347 kts 79°
2026-05-08 18:33 56.33566 11.58064 16514 ft 352 kts 79°
2026-05-08 18:33 56.34008 11.62428 17126 ft 356 kts 79°
2026-05-08 18:33 56.34445 11.66830 17748 ft 359 kts 80°
2026-05-08 18:34 56.34886 11.71284 18327 ft 363 kts 80°
2026-05-08 18:34 56.35327 11.75759 18907 ft 366 kts 80°
2026-05-08 18:34 56.35771 11.80280 19485 ft 370 kts 80°
2026-05-08 18:34 56.36221 11.84864 20040 ft 373 kts 80°